Find Starlink 31447

NORAD ID: 59302 Int'l Des: 2024-056 Owner: SPXS Country: US Constellation: starlink operational
LEOCIRCULAR

Live Position

Loading 3D Globe...

About Starlink 31447

Description loading...

Upcoming Passes

Passes for default location (London). Set your location on the main map for personalized predictions.

Altitude History

Loading altitude history...

Two-Line Element Set

1 59302U 24056G 26132.96083961 .00000134 00000-0 14414-4 0 9998
2 59302 43.0032 227.7531 0001251 267.9593 92.1115 15.27572833120982
Epoch: May 12, 2026 • Age: 14 hours

Current Status

Altitude 485.3 km
Velocity 7.63 km/s
Sub-Earth Point 35.42°N, 159.16°W
Launch Date Mar 24, 2024
Age 2.1 years
Type internet

Technical Details

Classification Payload
Mass 730.00 kg
Dry Mass 700.00 kg
Total Mass 730.00 kg
Length 0.30 m
Diameter 4.10 m
Span 29.00 m
Shape Box + pan
Manufacturer SPXS
Bus Type Starlink V2M
Phase Status In Orbit
Owner/State SPXS/US

Most Searched